| time (UTC) | temp F | wind direction | speed knots | gust knots | rain 1hr in | rain 24hr in | rain mn in | humidity % | barometer mb |
| 20260508220536 | 69 | 225 | 6.1 | 7.0 | 0.00 | 0.00 | 0.00 | 43 | 1010.5 |
| 20260508220032 | 69 | 11 | 4.3 | 6.1 | 0.00 | 0.00 | 0.00 | 43 | 1010.7 |
| 20260508215529 | 69 | 198 | 7.0 | 8.7 | 0.00 | 0.00 | 0.00 | 43 | 1010.6 |
| 20260508215026 | 69 | 296 | 1.7 | 1.7 | 0.00 | 0.00 | 0.00 | 46 | 1010.6 |
| 20260508214523 | 70 | 223 | 4.3 | 6.1 | 0.00 | 0.00 | 0.00 | 45 | 1010.7 |
| 20260508214019 | 71 | 295 | 1.7 | 2.6 | 0.00 | 0.00 | 0.00 | 42 | 1010.8 |
| 20260508213517 | 74 | 210 | 2.6 | 5.2 | 0.00 | 0.00 | 0.00 | 40 | 1010.5 |
| 20260508213012 | 73 | 339 | 1.7 | 1.7 | 0.00 | 0.00 | 0.00 | 41 | 1010.6 |
| 20260508212509 | 71 | 181 | 2.6 | 2.6 | 0.00 | 0.00 | 0.00 | 41 | 1010.7 |
| 20260508212006 | 71 | 236 | 3.5 | 7.8 | 0.00 | 0.00 | 0.00 | 41 | 1011.0 |
| 20260508211501 | 71 | 215 | 6.1 | 7.0 | 0.00 | 0.00 | 0.00 | 40 | 1011.0 |
| 20260508210958 | 71 | 290 | 4.3 | 7.0 | 0.00 | 0.00 | 0.00 | 42 | 1011.0 |
| 20260508210454 | 72 | 305 | 0.9 | 0.9 | 0.00 | 0.00 | 0.00 | 40 | 1010.9 |
| 20260508205951 | 71 | 180 | 7.0 | 7.8 | 0.00 | 0.00 | 0.00 | 41 | 1011.0 |
| 20260508205448 | 70 | 204 | 4.3 | 6.1 | 0.00 | 0.00 | 0.00 | 41 | 1011.0 |
| 20260508204944 | 70 | 175 | 4.3 | 5.2 | 0.00 | 0.00 | 0.00 | 45 | 1011.3 |
| 20260508204442 | 70 | 355 | 0.9 | 1.7 | 0.00 | 0.00 | 0.00 | 45 | 1011.4 |
| 20260508203937 | 71 | 234 | 2.6 | 4.3 | 0.00 | 0.00 | 0.00 | 42 | 1011.4 |
| 20260508203433 | 72 | 221 | 0.9 | 2.6 | 0.00 | 0.00 | 0.00 | 47 | 1011.3 |
| 20260508202929 | 70 | 323 | 2.6 | 2.6 | 0.00 | 0.00 | 0.00 | 42 | 1011.5 |
| 20260508202427 | 71 | 224 | 1.7 | 4.3 | 0.00 | 0.00 | 0.00 | 45 | 1011.5 |
| 20260508201924 | 71 | 301 | 4.3 | 5.2 | 0.00 | 0.00 | 0.00 | 41 | 1011.7 |
| 20260508201420 | 70 | 336 | 0.9 | 0.9 | 0.00 | 0.00 | 0.00 | 42 | 1011.7 |
| 20260508200917 | 70 | 221 | 2.6 | 4.3 | 0.00 | 0.00 | 0.00 | 45 | 1011.7 |
| 20260508200414 | 70 | 198 | 1.7 | 2.6 | 0.00 | 0.00 | 0.00 | 45 | 1011.7 |
| 20260508195909 | 70 | 325 | 1.7 | 2.6 | 0.00 | 0.00 | 0.00 | 43 | 1011.8 |
| 20260508195407 | 70 | 241 | 5.2 | 7.8 | 0.00 | 0.00 | 0.00 | 40 | 1011.9 |
| 20260508194902 | 70 | 217 | 2.6 | 7.0 | 0.00 | 0.00 | 0.00 | 43 | 1011.9 |
| 20260508194400 | 70 | 161 | 6.1 | 7.8 | 0.00 | 0.00 | 0.00 | 41 | 1011.9 |
| 20260508193857 | 70 | 8 | 0.9 | 0.9 | 0.00 | 0.00 | 0.00 | 40 | 1012.0 |
| 20260508193353 | 71 | 175 | 7.0 | 7.8 | 0.00 | 0.00 | 0.00 | 41 | 1012.2 |
| 20260508192850 | 72 | 213 | 3.5 | 4.3 | 0.00 | 0.00 | 0.00 | 41 | 1012.0 |
| 20260508192347 | 71 | 254 | 0.9 | 1.7 | 0.00 | 0.00 | 0.00 | 40 | 1012.0 |
| 20260508191844 | 71 | 239 | 4.3 | 6.1 | 0.00 | 0.00 | 0.00 | 40 | 1012.3 |
| 20260508191341 | 71 | 187 | 7.8 | 8.7 | 0.00 | 0.00 | 0.00 | 41 | 1012.3 |
| 20260508190838 | 71 | 324 | 1.7 | 2.6 | 0.00 | 0.00 | 0.00 | 41 | 1012.5 |
| 20260508190335 | 72 | 187 | 5.2 | 7.8 | 0.00 | 0.00 | 0.00 | 40 | 1012.1 |
| 20260508185831 | 71 | 179 | 4.3 | 6.1 | 0.00 | 0.00 | 0.00 | 43 | 1012.4 |
| 20260508185329 | 71 | 194 | 3.5 | 4.3 | 0.00 | 0.00 | 0.00 | 39 | 1012.6 |
| 20260508184826 | 71 | 216 | 5.2 | 7.8 | 0.00 | 0.00 | 0.00 | 41 | 1012.7 |
| 20260508184323 | 70 | 230 | 4.3 | 7.0 | 0.00 | 0.00 | 0.00 | 45 | 1013.0 |
| 20260508183820 | 70 | 168 | 6.1 | 7.0 | 0.00 | 0.00 | 0.00 | 41 | 1012.8 |
| 20260508183316 | 71 | 161 | 2.6 | 4.3 | 0.00 | 0.00 | 0.00 | 44 | 1013.1 |
| 20260508182812 | 71 | 129 | 4.3 | 5.2 | 0.00 | 0.00 | 0.00 | 40 | 1013.0 |
| 20260508182309 | 69 | 312 | 2.6 | 4.3 | 0.00 | 0.00 | 0.00 | 41 | 1013.3 |
| 20260508181805 | 70 | 201 | 11.3 | 13.9 | 0.00 | 0.00 | 0.00 | 39 | 1013.3 |
| 20260508181302 | 71 | 218 | 6.1 | 7.0 | 0.00 | 0.00 | 0.00 | 44 | 1013.3 |
| 20260508180759 | 70 | 224 | 1.7 | 1.7 | 0.00 | 0.00 | 0.00 | 44 | 1013.4 |
| 20260508180256 | 70 | 342 | 3.5 | 4.3 | 0.00 | 0.00 | 0.00 | 42 | 1013.4 |
| 20260508175752 | 69 | 175 | 3.5 | 5.2 | 0.00 | 0.00 | 0.00 | 45 | 1013.5 |
| 20260508175248 | 69 | 301 | 0.0 | 0.0 | 0.00 | 0.00 | 0.00 | 45 | 1013.6 |
| 20260508174747 | 70 | 338 | 1.7 | 2.6 | 0.00 | 0.00 | 0.00 | 45 | 1013.6 |
| 20260508174244 | 70 | 213 | 4.3 | 5.2 | 0.00 | 0.00 | 0.00 | 45 | 1013.6 |
| 20260508173740 | 69 | 74 | 2.6 | 4.3 | 0.00 | 0.00 | 0.00 | 42 | 1014.0 |
| 20260508173236 | 69 | 204 | 7.0 | 8.7 | 0.00 | 0.00 | 0.00 | 45 | 1014.1 |
| 20260508172733 | 67 | 349 | 2.6 | 2.6 | 0.00 | 0.00 | 0.00 | 44 | 1014.3 |
| 20260508172230 | 67 | 26 | 2.6 | 4.3 | 0.00 | 0.00 | 0.00 | 47 | 1014.0 |
| 20260508171727 | 67 | 194 | 6.1 | 8.7 | 0.00 | 0.00 | 0.00 | 46 | 1014.5 |
| 20260508171222 | 69 | 227 | 5.2 | 7.8 | 0.00 | 0.00 | 0.00 | 46 | 1014.4 |
| 20260508170720 | 69 | 359 | 2.6 | 2.6 | 0.00 | 0.00 | 0.00 | 46 | 1014.3 |
| 20260508170217 | 68 | 181 | 3.5 | 5.2 | 0.00 | 0.00 | 0.00 | 47 | 1014.6 |
| 20260508165714 | 67 | 194 | 7.0 | 7.8 | 0.00 | 0.00 | 0.00 | 47 | 1014.7 |
| 20260508165211 | 68 | 153 | 9.6 | 12.2 | 0.00 | 0.00 | 0.00 | 47 | 1014.8 |
| 20260508164708 | 68 | 262 | 1.7 | 1.7 | 0.00 | 0.00 | 0.00 | 50 | 1014.9 |
| 20260508164204 | 68 | 332 | 2.6 | 4.3 | 0.00 | 0.00 | 0.00 | 47 | 1015.1 |
| 20260508163702 | 68 | 56 | 1.7 | 1.7 | 0.00 | 0.00 | 0.00 | 53 | 1014.7 |
| 20260508163159 | 67 | 315 | 2.6 | 2.6 | 0.00 | 0.00 | 0.00 | 54 | 1015.2 |
| 20260508162655 | 67 | 204 | 6.1 | 7.0 | 0.00 | 0.00 | 0.00 | 51 | 1015.2 |
| 20260508162152 | 67 | 268 | 3.5 | 6.1 | 0.00 | 0.00 | 0.00 | 47 | 1015.4 |
| 20260508161649 | 66 | 190 | 7.0 | 8.7 | 0.00 | 0.00 | 0.00 | 48 | 1015.3 |
| 20260508161146 | 67 | 162 | 3.5 | 5.2 | 0.00 | 0.00 | 0.00 | 50 | 1015.5 |
| 20260508160645 | 66 | 215 | 4.3 | 5.2 | 0.00 | 0.00 | 0.00 | 49 | 1015.4 |
| 20260508160142 | 67 | 218 | 1.7 | 4.3 | 0.00 | 0.00 | 0.00 | 50 | 1015.3 |
| 20260508155639 | 67 | 0 | 2.6 | 4.3 | 0.00 | 0.00 | 0.00 | 48 | 1015.5 |
| 20260508155136 | 66 | 355 | 5.2 | 7.0 | 0.00 | 0.00 | 0.00 | 50 | 1015.6 |
| 20260508154633 | 66 | 289 | 3.5 | 5.2 | 0.00 | 0.00 | 0.00 | 50 | 1015.6 |
| 20260508154129 | 67 | 219 | 3.5 | 5.2 | 0.00 | 0.00 | 0.00 | 52 | 1015.7 |
| 20260508153626 | 66 | 352 | 0.9 | 1.7 | 0.00 | 0.00 | 0.00 | 52 | 1015.9 |
| 20260508153123 | 65 | 346 | 4.3 | 7.0 | 0.00 | 0.00 | 0.00 | 50 | 1016.1 |
| 20260508152620 | 65 | 8 | 0.9 | 0.9 | 0.00 | 0.00 | 0.00 | 50 | 1016.0 |
| 20260508152115 | 66 | 303 | 2.6 | 4.3 | 0.00 | 0.00 | 0.00 | 49 | 1016.0 |
| 20260508151613 | 65 | 267 | 3.5 | 5.2 | 0.00 | 0.00 | 0.00 | 50 | 1016.2 |
| 20260508151109 | 65 | 345 | 2.6 | 2.6 | 0.00 | 0.00 | 0.00 | 51 | 1016.1 |
| 20260508150607 | 65 | 282 | 4.3 | 6.1 | 0.00 | 0.00 | 0.00 | 52 | 1016.3 |
| 20260508145559 | 64 | 104 | 3.5 | 5.2 | 0.00 | 0.00 | 0.00 | 50 | 1016.4 |
| 20260508145055 | 64 | 57 | 2.6 | 2.6 | 0.00 | 0.00 | 0.00 | 51 | 1016.2 |
| 20260508144553 | 64 | 232 | 3.5 | 4.3 | 0.00 | 0.00 | 0.00 | 51 | 1016.5 |
| 20260508144050 | 64 | 219 | 2.6 | 2.6 | 0.00 | 0.00 | 0.00 | 51 | 1016.4 |
| 20260508143548 | 62 | 219 | 3.5 | 5.2 | 0.00 | 0.00 | 0.00 | 51 | 1016.2 |
| 20260508143044 | 63 | 197 | 4.3 | 5.2 | 0.00 | 0.00 | 0.00 | 52 | 1016.6 |
| 20260508142541 | 62 | 337 | 0.9 | 1.7 | 0.00 | 0.00 | 0.00 | 52 | 1016.1 |
| 20260508142038 | 62 | 239 | 4.3 | 6.1 | 0.00 | 0.00 | 0.00 | 50 | 1016.5 |
| 20260508141534 | 62 | 303 | 1.7 | 1.7 | 0.00 | 0.00 | 0.00 | 56 | 1016.4 |
| 20260508141032 | 61 | 272 | 6.1 | 7.0 | 0.00 | 0.00 | 0.00 | 50 | 1016.5 |
| 20260508140529 | 62 | 203 | 1.7 | 4.3 | 0.00 | 0.00 | 0.00 | 53 | 1016.6 |
| 20260508140025 | 61 | 5 | 2.6 | 2.6 | 0.00 | 0.00 | 0.00 | 54 | 1016.6 |
| 20260508135521 | 60 | 293 | 1.7 | 1.7 | 0.00 | 0.00 | 0.00 | 56 | 1016.8 |
| 20260508135018 | 59 | 0 | 2.6 | 5.2 | 0.00 | 0.00 | 0.00 | 58 | 1016.5 |
| 20260508134514 | 59 | 51 | 1.7 | 1.7 | 0.00 | 0.00 | 0.00 | 58 | 1016.7 |
| 20260508134012 | 58 | 126 | 2.6 | 2.6 | 0.00 | 0.00 | 0.00 | 60 | 1016.6 |
| 20260508133508 | 58 | 0 | 0.9 | 0.9 | 0.00 | 0.00 | 0.00 | 59 | 1016.6 |
| 20260508133005 | 57 | 241 | 3.5 | 4.3 | 0.00 | 0.00 | 0.00 | 60 | 1016.9 |
| 20260508132503 | 56 | 204 | 2.6 | 2.6 | 0.00 | 0.00 | 0.00 | 65 | 1016.6 |
| 20260508131959 | 55 | 169 | 2.6 | 2.6 | 0.00 | 0.00 | 0.00 | 63 | 1016.7 |
| 20260508131455 | 54 | 250 | 2.6 | 2.6 | 0.00 | 0.00 | 0.00 | 66 | 1016.8 |
| 20260508130952 | 54 | 354 | 0.9 | 0.9 | 0.00 | 0.00 | 0.00 | 67 | 1016.7 |
| 20260508130449 | 53 | 100 | 1.7 | 1.7 | 0.00 | 0.00 | 0.00 | 69 | 1016.8 |
| 20260508125944 | 52 | 59 | 0.9 | 0.9 | 0.00 | 0.00 | 0.00 | 71 | 1016.4 |
| 20260508125441 | 51 | 134 | 3.5 | 4.3 | 0.00 | 0.00 | 0.00 | 70 | 1016.5 |
| 20260508124939 | 51 | 235 | 2.6 | 2.6 | 0.00 | 0.00 | 0.00 | 71 | 1016.6 |
| 20260508124436 | 50 | 159 | 2.6 | 2.6 | 0.00 | 0.00 | 0.00 | 71 | 1016.6 |
| 20260508123934 | 49 | 179 | 2.6 | 2.6 | 0.00 | 0.00 | 0.00 | 73 | 1016.7 |
| 20260508123432 | 49 | 106 | 2.6 | 2.6 | 0.00 | 0.00 | 0.00 | 73 | 1016.6 |
| 20260508122928 | 48 | 208 | 1.7 | 2.6 | 0.00 | 0.00 | 0.00 | 75 | 1016.5 |
| 20260508122426 | 48 | 196 | 2.6 | 2.6 | 0.00 | 0.00 | 0.00 | 75 | 1016.4 |
| 20260508121923 | 47 | 147 | 2.6 | 2.6 | 0.00 | 0.00 | 0.00 | 76 | 1016.7 |
| 20260508121421 | 47 | 57 | 2.6 | 2.6 | 0.00 | 0.00 | 0.00 | 78 | 1016.5 |
| 20260508120918 | 46 | 178 | 2.6 | 2.6 | 0.00 | 0.00 | 0.00 | 79 | 1016.6 |
| 20260508120416 | 45 | 192 | 2.6 | 2.6 | 0.00 | 0.00 | 0.00 | 81 | 1016.6 |
| 20260508115913 | 44 | 287 | 2.6 | 2.6 | 0.00 | 0.00 | 0.00 | 84 | 1016.4 |
| 20260508115411 | 43 | 339 | 1.7 | 1.7 | 0.00 | 0.00 | 0.00 | 88 | 1016.5 |
| 20260508114907 | 43 | 188 | 1.7 | 1.7 | 0.00 | 0.00 | 0.00 | 90 | 1016.5 |
| 20260508114404 | 42 | 344 | 0.9 | 0.9 | 0.00 | 0.00 | 0.00 | 93 | 1016.4 |
| 20260508113901 | 41 | 22 | 0.9 | 0.9 | 0.00 | 0.00 | 0.00 | 95 | 1016.4 |
| 20260508113359 | 40 | 320 | 0.9 | 0.9 | 0.00 | 0.00 | 0.00 | 97 | 1016.4 |
| 20260508112855 | 39 | 35 | 1.7 | 1.7 | 0.00 | 0.00 | 0.00 | 98 | 1016.2 |
| 20260508112352 | 39 | 181 | 1.7 | 1.7 | 0.00 | 0.00 | 0.00 | 99 | 1016.4 |
| 20260508111849 | 38 | 78 | 0.0 | 0.0 | 0.00 | 0.00 | 0.00 | 99 | 1016.3 |
| 20260508111346 | 38 | 41 | 0.0 | 0.0 | 0.00 | 0.00 | 0.00 | 99 | 1016.2 |
| 20260508110843 | 38 | 10 | 0.0 | 0.0 | 0.00 | 0.00 | 0.00 | 99 | 1016.0 |
| 20260508110341 | 38 | 37 | 0.0 | 0.0 | 0.00 | 0.00 | 0.00 | 99 | 1016.3 |
| 20260508105840 | 38 | 341 | 0.0 | 0.0 | 0.00 | 0.00 | 0.00 | 99 | 1016.1 |
| 20260508105337 | 38 | 7 | 0.0 | 0.0 | 0.00 | 0.00 | 0.00 | 99 | 1016.1 |
| 20260508104834 | 38 | 84 | 0.0 | 0.0 | 0.00 | 0.00 | 0.00 | 99 | 1015.9 |
| 20260508104331 | 37 | 349 | 0.0 | 0.0 | 0.00 | 0.00 | 0.00 | 99 | 1016.0 |
| 20260508103828 | 37 | 352 | 0.0 | 0.0 | 0.00 | 0.00 | 0.00 | 99 | 1016.1 |
| 20260508103325 | 37 | 1 | 0.0 | 0.0 | 0.00 | 0.00 | 0.00 | 99 | 1015.9 |
| 20260508102823 | 37 | 1 | 0.0 | 0.0 | 0.00 | 0.00 | 0.00 | 99 | 1016.1 |
| 20260508102321 | 37 | 2 | 0.0 | 0.0 | 0.00 | 0.00 | 0.00 | 99 | 1016.2 |
| 20260508101818 | 37 | 354 | 0.0 | 0.0 | 0.00 | 0.00 | 0.00 | 99 | 1016.0 |
| 20260508101315 | 37 | 358 | 0.0 | 0.0 | 0.00 | 0.00 | 0.00 | 99 | 1016.0 |
| 20260508100813 | 37 | 354 | 0.0 | 0.0 | 0.00 | 0.00 | 0.00 | 99 | 1015.9 |
| 20260508100311 | 36 | 0 | 0.0 | 0.0 | 0.00 | 0.00 | 0.00 | 99 | 1016.0 |
| 20260508095806 | 36 | 1 | 0.0 | 0.0 | 0.00 | 0.00 | 0.00 | 99 | 1016.1 |
| 20260508095306 | 36 | 1 | 0.0 | 0.0 | 0.00 | 0.00 | 0.00 | 99 | 1016.2 |
| 20260508094801 | 36 | 358 | 0.0 | 0.0 | 0.00 | 0.00 | 0.00 | 99 | 1015.9 |
| 20260508094258 | 36 | 359 | 0.0 | 0.0 | 0.00 | 0.00 | 0.00 | 99 | 1016.1 |
| 20260508093755 | 36 | 0 | 0.0 | 0.0 | 0.00 | 0.00 | 0.00 | 99 | 1016.1 |
| 20260508093253 | 36 | 0 | 0.0 | 0.0 | 0.00 | 0.00 | 0.00 | 99 | 1016.0 |
| 20260508092749 | 36 | 358 | 0.0 | 0.0 | 0.00 | 0.00 | 0.00 | 99 | 1016.0 |
| 20260508092248 | 36 | 0 | 0.0 | 0.0 | 0.00 | 0.00 | 0.00 | 99 | 1016.0 |
| 20260508091746 | 36 | 0 | 0.0 | 0.0 | 0.00 | 0.00 | 0.00 | 99 | 1015.9 |
| 20260508091242 | 36 | 1 | 0.0 | 0.0 | 0.00 | 0.00 | 0.00 | 99 | 1015.7 |
| 20260508090740 | 36 | 359 | 0.0 | 0.0 | 0.00 | 0.00 | 0.00 | 99 | 1015.7 |
| 20260508090237 | 36 | 0 | 0.0 | 0.0 | 0.00 | 0.00 | 0.00 | 99 | 1015.8 |
| 20260508085733 | 36 | 358 | 0.0 | 0.0 | 0.00 | 0.00 | 0.00 | 98 | 1015.7 |
| 20260508085230 | 37 | 358 | 0.0 | 0.0 | 0.00 | 0.00 | 0.00 | 98 | 1015.9 |
| 20260508084726 | 37 | 359 | 0.0 | 0.0 | 0.00 | 0.00 | 0.00 | 98 | 1015.8 |
| 20260508084224 | 37 | 358 | 0.0 | 0.0 | 0.00 | 0.00 | 0.00 | 98 | 1015.8 |
| 20260508083721 | 37 | 359 | 0.0 | 0.0 | 0.00 | 0.00 | 0.00 | 98 | 1015.9 |
| 20260508083219 | 37 | 2 | 0.0 | 0.0 | 0.00 | 0.00 | 0.00 | 98 | 1015.8 |
| 20260508082713 | 37 | 2 | 0.0 | 0.0 | 0.00 | 0.00 | 0.00 | 98 | 1015.7 |
| 20260508082211 | 37 | 0 | 0.0 | 0.0 | 0.00 | 0.00 | 0.00 | 98 | 1015.8 |
| 20260508081709 | 37 | 355 | 0.0 | 0.0 | 0.00 | 0.00 | 0.00 | 98 | 1015.6 |
| 20260508081205 | 37 | 359 | 0.0 | 0.0 | 0.00 | 0.00 | 0.00 | 98 | 1015.7 |
| 20260508080702 | 37 | 359 | 0.0 | 0.0 | 0.00 | 0.00 | 0.00 | 99 | 1015.6 |
| 20260508080200 | 37 | 1 | 0.0 | 0.0 | 0.00 | 0.00 | 0.00 | 98 | 1015.8 |
| 20260508075656 | 37 | 358 | 0.0 | 0.0 | 0.00 | 0.00 | 0.00 | 98 | 1015.7 |
| 20260508075154 | 37 | 357 | 0.0 | 0.0 | 0.00 | 0.00 | 0.00 | 98 | 1015.6 |
| 20260508074651 | 38 | 358 | 0.0 | 0.0 | 0.00 | 0.00 | 0.00 | 98 | 1015.7 |
| 20260508074148 | 37 | 4 | 0.0 | 0.0 | 0.00 | 0.00 | 0.00 | 98 | 1015.7 |
| 20260508073645 | 37 | 358 | 0.0 | 0.0 | 0.00 | 0.00 | 0.00 | 98 | 1015.6 |
| 20260508073143 | 37 | 357 | 0.0 | 0.0 | 0.00 | 0.00 | 0.00 | 98 | 1015.6 |
| 20260508072638 | 37 | 358 | 0.0 | 0.0 | 0.00 | 0.00 | 0.00 | 98 | 1015.6 |
| 20260508072136 | 37 | 336 | 0.0 | 0.0 | 0.00 | 0.00 | 0.00 | 98 | 1015.7 |
| 20260508071633 | 38 | 4 | 0.0 | 0.0 | 0.00 | 0.00 | 0.00 | 98 | 1015.5 |
| 20260508071131 | 38 | 358 | 0.0 | 0.0 | 0.00 | 0.00 | 0.00 | 98 | 1015.6 |
| 20260508070629 | 38 | 13 | 0.0 | 0.0 | 0.00 | 0.00 | 0.00 | 97 | 1015.6 |
| 20260508070127 | 38 | 345 | 0.0 | 0.0 | 0.00 | 0.00 | 0.00 | 97 | 1015.9 |
| 20260508065624 | 39 | 353 | 0.0 | 0.9 | 0.00 | 0.00 | 0.00 | 98 | 1016.1 |
| 20260508065122 | 39 | 357 | 0.0 | 0.0 | 0.00 | 0.00 | 0.00 | 97 | 1016.1 |
| 20260508064619 | 38 | 358 | 0.0 | 0.0 | 0.00 | 0.00 | 0.00 | 98 | 1016.2 |
| 20260508064117 | 38 | 357 | 0.0 | 0.0 | 0.00 | 0.00 | 0.00 | 97 | 1016.2 |
| 20260508063614 | 38 | 358 | 0.0 | 0.0 | 0.00 | 0.00 | 0.00 | 97 | 1016.0 |
| 20260508063112 | 38 | 359 | 0.0 | 0.0 | 0.00 | 0.00 | 0.00 | 97 | 1016.1 |
| 20260508062609 | 38 | 358 | 0.0 | 0.0 | 0.00 | 0.00 | 0.00 | 97 | 1016.1 |
| 20260508062106 | 38 | 357 | 0.0 | 0.0 | 0.00 | 0.00 | 0.00 | 97 | 1016.3 |
| 20260508061604 | 38 | 0 | 0.0 | 0.0 | 0.00 | 0.00 | 0.00 | 97 | 1016.1 |
| 20260508061101 | 38 | 1 | 0.0 | 0.0 | 0.00 | 0.00 | 0.00 | 96 | 1016.4 |
| 20260508060557 | 39 | 1 | 0.0 | 0.0 | 0.00 | 0.00 | 0.00 | 96 | 1016.5 |
| 20260508060055 | 39 | 0 | 0.0 | 0.0 | 0.00 | 0.00 | 0.00 | 97 | 1016.5 |
| 20260508055550 | 39 | 359 | 0.0 | 0.0 | 0.00 | 0.00 | 0.00 | 96 | 1016.5 |
| 20260508055047 | 39 | 359 | 0.0 | 0.0 | 0.00 | 0.00 | 0.00 | 97 | 1016.4 |
| 20260508054543 | 40 | 7 | 0.0 | 0.0 | 0.00 | 0.00 | 0.00 | 97 | 1016.4 |
| 20260508054041 | 39 | 357 | 0.0 | 0.0 | 0.00 | 0.00 | 0.00 | 97 | 1016.4 |
| 20260508053537 | 39 | 3 | 0.0 | 0.0 | 0.00 | 0.00 | 0.00 | 97 | 1016.4 |
| 20260508053036 | 39 | 359 | 0.0 | 0.0 | 0.00 | 0.00 | 0.00 | 96 | 1016.4 |
| 20260508052533 | 38 | 0 | 0.0 | 0.0 | 0.00 | 0.00 | 0.00 | 96 | 1016.4 |
| 20260508052030 | 38 | 0 | 0.0 | 0.0 | 0.00 | 0.00 | 0.00 | 96 | 1016.1 |
| 20260508051526 | 39 | 0 | 0.0 | 0.0 | 0.00 | 0.00 | 0.00 | 96 | 1016.2 |
| 20260508051021 | 39 | 0 | 0.0 | 0.0 | 0.00 | 0.00 | 0.00 | 96 | 1016.2 |
| 20260508050518 | 39 | 0 | 0.0 | 0.0 | 0.00 | 0.00 | 0.00 | 96 | 1016.1 |
| 20260508050015 | 39 | 358 | 0.0 | 0.0 | 0.00 | 0.00 | 0.00 | 96 | 1016.2 |
| 20260508045512 | 39 | 358 | 0.0 | 0.0 | 0.00 | 0.00 | 0.00 | 96 | 1016.3 |
| 20260508045009 | 39 | 359 | 0.0 | 0.0 | 0.00 | 0.00 | 0.00 | 96 | 1016.3 |
| 20260508044506 | 39 | 355 | 0.0 | 0.0 | 0.00 | 0.00 | 0.00 | 96 | 1016.3 |
| 20260508044002 | 38 | 0 | 0.0 | 0.0 | 0.00 | 0.00 | 0.00 | 95 | 1016.5 |
| 20260508043459 | 38 | 0 | 0.0 | 0.0 | 0.00 | 0.00 | 0.00 | 95 | 1016.4 |
| 20260508042955 | 39 | 0 | 0.0 | 0.0 | 0.00 | 0.00 | 0.00 | 95 | 1016.3 |
| 20260508042453 | 39 | 0 | 0.0 | 0.0 | 0.00 | 0.00 | 0.00 | 95 | 1016.2 |
| 20260508041950 | 40 | 0 | 0.0 | 0.0 | 0.00 | 0.00 | 0.00 | 95 | 1016.2 |
| 20260508041446 | 39 | 353 | 0.0 | 0.0 | 0.00 | 0.00 | 0.00 | 95 | 1016.3 |
| 20260508040943 | 39 | 0 | 0.0 | 0.0 | 0.00 | 0.00 | 0.00 | 94 | 1016.2 |
| 20260508040440 | 40 | 0 | 0.0 | 0.0 | 0.00 | 0.00 | 0.00 | 94 | 1016.1 |
| 20260508035938 | 40 | 0 | 0.0 | 0.0 | 0.00 | 0.00 | 0.00 | 94 | 1016.2 |
| 20260508035435 | 40 | 3 | 0.0 | 0.0 | 0.00 | 0.00 | 0.00 | 94 | 1016.2 |
| 20260508034931 | 40 | 1 | 0.0 | 0.0 | 0.00 | 0.00 | 0.00 | 93 | 1016.2 |
| 20260508034429 | 40 | 1 | 0.0 | 0.0 | 0.00 | 0.00 | 0.00 | 93 | 1016.2 |
| 20260508033925 | 40 | 1 | 0.0 | 0.0 | 0.00 | 0.00 | 0.00 | 92 | 1016.3 |
| 20260508033424 | 40 | 1 | 0.0 | 0.0 | 0.00 | 0.00 | 0.00 | 92 | 1016.2 |
| 20260508032921 | 40 | 1 | 0.0 | 0.0 | 0.00 | 0.00 | 0.00 | 92 | 1016.1 |
| 20260508032418 | 41 | 2 | 0.0 | 0.0 | 0.00 | 0.00 | 0.00 | 92 | 1016.1 |
| 20260508031915 | 40 | 0 | 0.0 | 0.0 | 0.00 | 0.00 | 0.00 | 92 | 1016.4 |
| 20260508031412 | 40 | 0 | 0.0 | 0.0 | 0.00 | 0.00 | 0.00 | 91 | 1016.4 |
| 20260508030908 | 41 | 0 | 0.0 | 0.0 | 0.00 | 0.00 | 0.00 | 91 | 1016.4 |
| 20260508030405 | 40 | 0 | 0.0 | 0.0 | 0.00 | 0.00 | 0.00 | 91 | 1016.2 |
| 20260508025902 | 40 | 0 | 0.0 | 0.0 | 0.00 | 0.00 | 0.00 | 90 | 1016.1 |
| 20260508025358 | 41 | 0 | 0.0 | 0.0 | 0.00 | 0.00 | 0.00 | 90 | 1016.1 |
| 20260508024855 | 41 | 0 | 0.0 | 0.0 | 0.00 | 0.00 | 0.00 | 89 | 1016.3 |
| 20260508024352 | 41 | 0 | 0.0 | 0.0 | 0.00 | 0.00 | 0.00 | 89 | 1016.5 |
| 20260508023849 | 42 | 0 | 0.0 | 0.0 | 0.00 | 0.00 | 0.00 | 89 | 1016.1 |
| 20260508023346 | 42 | 0 | 0.0 | 0.0 | 0.00 | 0.00 | 0.00 | 89 | 1015.9 |
| 20260508022843 | 42 | 0 | 0.0 | 0.0 | 0.00 | 0.00 | 0.00 | 88 | 1016.1 |
| 20260508022338 | 42 | 0 | 0.0 | 0.0 | 0.00 | 0.00 | 0.00 | 87 | 1016.1 |
| 20260508021836 | 42 | 0 | 0.0 | 0.0 | 0.00 | 0.00 | 0.00 | 87 | 1016.1 |
| 20260508021332 | 41 | 0 | 0.0 | 0.0 | 0.00 | 0.00 | 0.00 | 86 | 1016.1 |
| 20260508020827 | 42 | 0 | 0.0 | 0.0 | 0.00 | 0.00 | 0.00 | 86 | 1016.1 |
| 20260508020325 | 42 | 0 | 0.0 | 0.0 | 0.00 | 0.00 | 0.00 | 86 | 1016.2 |
| 20260508015822 | 43 | 0 | 0.0 | 0.0 | 0.00 | 0.00 | 0.00 | 85 | 1016.1 |
| 20260508015320 | 44 | 0 | 0.0 | 0.0 | 0.00 | 0.00 | 0.00 | 85 | 1016.0 |
| 20260508014816 | 44 | 0 | 0.0 | 0.0 | 0.00 | 0.00 | 0.00 | 84 | 1015.9 |
| 20260508014314 | 44 | 0 | 0.0 | 0.0 | 0.00 | 0.00 | 0.00 | 83 | 1015.9 |
| 20260508013809 | 45 | 0 | 0.0 | 0.0 | 0.00 | 0.00 | 0.00 | 81 | 1016.0 |
| 20260508013306 | 46 | 0 | 0.0 | 0.0 | 0.00 | 0.00 | 0.00 | 80 | 1016.0 |
| 20260508012803 | 46 | 0 | 0.0 | 0.0 | 0.00 | 0.00 | 0.00 | 79 | 1015.9 |
| 20260508012300 | 47 | 358 | 0.0 | 0.0 | 0.00 | 0.00 | 0.00 | 78 | 1015.9 |
| 20260508011758 | 47 | 2 | 0.0 | 0.0 | 0.00 | 0.00 | 0.00 | 76 | 1015.8 |
| 20260508011255 | 48 | 1 | 0.0 | 0.0 | 0.00 | 0.00 | 0.00 | 72 | 1015.8 |
| 20260508010752 | 48 | 359 | 0.0 | 0.0 | 0.00 | 0.00 | 0.00 | 68 | 1015.7 |
| 20260508010250 | 49 | 359 | 0.0 | 0.0 | 0.00 | 0.00 | 0.00 | 66 | 1015.8 |
| 20260508005747 | 50 | 359 | 0.0 | 0.0 | 0.00 | 0.00 | 0.00 | 65 | 1015.5 |
| 20260508005243 | 50 | 359 | 0.0 | 0.0 | 0.00 | 0.00 | 0.00 | 65 | 1015.8 |
| 20260508004739 | 51 | 359 | 0.0 | 0.0 | 0.00 | 0.00 | 0.00 | 66 | 1015.6 |
| 20260508004235 | 51 | 359 | 0.0 | 0.0 | 0.00 | 0.00 | 0.00 | 65 | 1015.5 |
| 20260508003732 | 52 | 358 | 0.0 | 0.0 | 0.00 | 0.00 | 0.00 | 63 | 1015.5 |
| 20260508003230 | 52 | 358 | 0.0 | 0.0 | 0.00 | 0.00 | 0.00 | 62 | 1015.5 |
| 20260508002726 | 53 | 358 | 0.0 | 0.0 | 0.00 | 0.00 | 0.00 | 61 | 1015.3 |
| 20260508002224 | 53 | 354 | 0.0 | 0.0 | 0.00 | 0.00 | 0.00 | 59 | 1015.4 |
| 20260508001719 | 53 | 1 | 0.0 | 0.0 | 0.00 | 0.00 | 0.00 | 59 | 1015.4 |
| 20260508001215 | 54 | 1 | 0.0 | 0.0 | 0.00 | 0.00 | 0.00 | 60 | 1015.3 |
| 20260508000711 | 55 | 348 | 0.0 | 0.0 | 0.00 | 0.00 | 0.00 | 56 | 1015.3 |
| 20260508000209 | 55 | 357 | 0.0 | 0.0 | 0.00 | 0.00 | 0.00 | 55 | 1015.2 |
| 20260507235705 | 57 | 358 | 0.0 | 0.0 | 0.00 | 0.00 | 0.00 | 50 | 1015.1 |
| 20260507235202 | 58 | 356 | 0.0 | 0.0 | 0.00 | 0.00 | 0.00 | 51 | 1015.0 |
| 20260507234659 | 58 | 356 | 0.0 | 0.0 | 0.00 | 0.00 | 0.00 | 47 | 1015.2 |
| 20260507234155 | 59 | 351 | 0.9 | 0.9 | 0.00 | 0.00 | 0.00 | 41 | 1015.1 |
| 20260507233652 | 59 | 349 | 0.9 | 0.9 | 0.00 | 0.00 | 0.00 | 41 | 1015.0 |
| 20260507233151 | 60 | 359 | 0.9 | 1.7 | 0.00 | 0.00 | 0.00 | 41 | 1015.2 |
| 20260507232648 | 61 | 349 | 0.9 | 1.7 | 0.00 | 0.00 | 0.00 | 41 | 1015.1 |
| 20260507232145 | 61 | 338 | 0.9 | 0.9 | 0.00 | 0.00 | 0.00 | 39 | 1015.0 |
| 20260507231641 | 61 | 356 | 0.0 | 0.9 | 0.00 | 0.00 | 0.00 | 40 | 1015.1 |
| 20260507231138 | 61 | 338 | 0.0 | 0.9 | 0.00 | 0.00 | 0.00 | 38 | 1015.0 |
| 20260507230634 | 62 | 340 | 4.3 | 5.2 | 0.00 | 0.00 | 0.00 | 37 | 1015.0 |
| 20260507230132 | 62 | 344 | 0.0 | 0.0 | 0.00 | 0.00 | 0.00 | 42 | 1014.9 |
| 20260507225632 | 60 | 346 | 0.9 | 0.9 | 0.00 | 0.00 | 0.00 | 41 | 1015.2 |
| 20260507225129 | 62 | 330 | 4.3 | 6.1 | 0.00 | 0.00 | 0.00 | 39 | 1015.2 |
| 20260507224624 | 60 | 346 | 0.9 | 0.9 | 0.00 | 0.00 | 0.00 | 38 | 1015.1 |
| 20260507224121 | 61 | 12 | 3.5 | 4.3 | 0.00 | 0.00 | 0.00 | 37 | 1015.1 |
| 20260507223617 | 61 | 12 | 2.6 | 4.3 | 0.00 | 0.00 | 0.00 | 38 | 1015.1 |
| 20260507223114 | 61 | 319 | 2.6 | 4.3 | 0.00 | 0.00 | 0.00 | 38 | 1015.0 |
| 20260507222611 | 61 | 303 | 1.7 | 2.6 | 0.00 | 0.00 | 0.00 | 40 | 1015.1 |
| 20260507222108 | 61 | 346 | 4.3 | 5.2 | 0.00 | 0.00 | 0.00 | 37 | 1015.0 |
| 20260507221603 | 62 | 7 | 1.7 | 4.3 | 0.00 | 0.00 | 0.00 | 38 | 1014.8 |
| 20260507221101 | 61 | 292 | 1.7 | 1.7 | 0.00 | 0.00 | 0.00 | 39 | 1015.2 |